contact:dominique.lefevre@mio.osupytheas.fr, maurice.libes@osupytheas.fr, didier.mallarino@osupytheas.fr
Project:EMSO http://www.emso-fr.org/EMSO-France
Depth: 2436.0 m
Title:EMSO Ligure Ouest : Data MII capteur CSTAR
DateTime,Latitude,Longitude,Instrument_Serial,Reference_Counts,Signal_Counts,Corrected_Signal_raw_counts,Calculated_Beam_c_inverse_meters,Internal_thermistor_counts
DateTime,Latitude,Longitude,Instrument_Serial,Reference_Counts,Signal_Counts,Corrected_Signal_raw_counts,Calculated_Beam_c_inverse_meters,Internal_thermistor_counts
2020-03-05T00:01:59,42.805,6.029,CST-1368DR,6674,9355,15219,0.103,551
2020-03-05T00:05:01,42.805,6.029,CST-1368DR,6674,9355,15219,0.103,551
2020-03-05T00:08:03,42.805,6.029,CST-1368DR,6674,9357,15222,0.102,551
2020-03-05T00:11:04,42.805,6.029,CST-1368DR,6674,9358,15223,0.102,551
2020-03-05T00:14:06,42.805,6.029,CST-1368DR,6674,9356,15221,0.102,551
2020-03-05T00:17:08,42.805,6.029,CST-1368DR,6674,9356,15221,0.102,551
2020-03-05T00:20:09,42.805,6.029,CST-1368DR,6674,9356,15220,0.103,551
2020-03-05T00:23:11,42.805,6.029,CST-1368DR,6674,9355,15219,0.103,551
2020-03-05T00:26:12,42.805,6.029,CST-1368DR,6674,9356,15220,0.103,551
2020-03-05T00:29:14,42.805,6.029,CST-1368DR,6674,9356,15220,0.103,551
2020-03-05T00:32:16,42.805,6.029,CST-1368DR,6674,9356,15221,0.102,551
2020-03-05T00:35:17,42.805,6.029,CST-1368DR,6674,9353,15215,0.104,551
2020-03-05T00:38:19,42.805,6.029,CST-1368DR,6674,9356,15221,0.102,551
2020-03-05T00:41:21,42.805,6.029,CST-1368DR,6674,9356,15221,0.102,551
2020-03-05T00:44:22,42.805,6.029,CST-1368DR,6674,9356,15221,0.102,551
2020-03-05T00:47:24,42.805,6.029,CST-1368DR,6674,9357,15222,0.102,551
2020-03-05T00:50:26,42.805,6.029,CST-1368DR,6674,9356,15221,0.102,551
2020-03-05T00:53:27,42.805,6.029,CST-1368DR,6674,9353,15216,0.104,551
2020-03-05T00:56:29,42.805,6.029,CST-1368DR,6674,9349,15210,0.105,551
2020-03-05T00:59:30,42.805,6.029,CST-1368DR,6674,9357,15222,0.102,551
2020-03-05T01:02:32,42.805,6.029,CST-1368DR,6674,9357,15222,0.102,551
2020-03-05T01:05:34,42.805,6.029,CST-1368DR,6674,9356,15221,0.102,551
2020-03-05T01:08:35,42.805,6.029,CST-1368DR,6674,9356,15221,0.102,551
2020-03-05T01:11:37,42.805,6.029,CST-1368DR,6674,9356,15220,0.103,551
2020-03-05T01:14:38,42.805,6.029,CST-1368DR,6674,9356,15220,0.103,551
2020-03-05T01:17:40,42.805,6.029,CST-1368DR,6674,9354,15218,0.103,551
2020-03-05T01:20:42,42.805,6.029,CST-1368DR,6674,9357,15222,0.102,551
2020-03-05T01:23:43,42.805,6.029,CST-1368DR,6674,9357,15223,0.102,551
2020-03-05T01:26:45,42.805,6.029,CST-1368DR,6674,9356,15221,0.102,551
2020-03-05T01:29:47,42.805,6.029,CST-1368DR,6674,9354,15217,0.104,551
2020-03-05T01:32:48,42.805,6.029,CST-1368DR,6674,9354,15218,0.103,551
2020-03-05T01:35:50,42.805,6.029,CST-1368DR,6674,9354,15218,0.103,551
2020-03-05T01:38:51,42.805,6.029,CST-1368DR,6674,9357,15222,0.102,551
2020-03-05T01:41:53,42.805,6.029,CST-1368DR,6674,9355,15219,0.103,551
2020-03-05T01:44:55,42.805,6.029,CST-1368DR,6674,9357,15222,0.102,551
2020-03-05T01:47:56,42.805,6.029,CST-1368DR,6674,9350,15211,0.105,551
2020-03-05T01:50:58,42.805,6.029,CST-1368DR,6674,9356,15221,0.102,551
2020-03-05T01:54:00,42.805,6.029,CST-1368DR,6674,9356,15221,0.102,551
2020-03-05T01:57:01,42.805,6.029,CST-1368DR,6674,9356,15221,0.102,551
2020-03-05T02:00:03,42.805,6.029,CST-1368DR,6674,9356,15221,0.102,551
2020-03-05T02:03:04,42.805,6.029,CST-1368DR,6674,9356,15220,0.103,551
2020-03-05T02:06:06,42.805,6.029,CST-1368DR,6674,9355,15219,0.103,551
2020-03-05T02:09:08,42.805,6.029,CST-1368DR,6674,9354,15218,0.103,551
2020-03-05T02:12:09,42.805,6.029,CST-1368DR,6674,9356,15221,0.102,551
2020-03-05T02:15:11,42.805,6.029,CST-1368DR,6674,9356,15220,0.103,551
2020-03-05T02:18:13,42.805,6.029,CST-1368DR,6674,9356,15221,0.102,551
2020-03-05T02:21:14,42.805,6.029,CST-1368DR,6674,9355,15219,0.103,550
2020-03-05T02:24:16,42.805,6.029,CST-1368DR,6674,9355,15219,0.103,551
2020-03-05T02:27:17,42.805,6.029,CST-1368DR,6674,9356,15221,0.102,551
2020-03-05T02:30:19,42.805,6.029,CST-1368DR,6674,9356,15221,0.102,551
2020-03-05T02:33:21,42.805,6.029,CST-1368DR,6674,9356,15221,0.102,551
2020-03-05T02:36:22,42.805,6.029,CST-1368DR,6674,9355,15220,0.103,551
2020-03-05T02:39:24,42.805,6.029,CST-1368DR,6674,9354,15218,0.103,551
2020-03-05T02:42:26,42.805,6.029,CST-1368DR,6674,9355,15219,0.103,551
2020-03-05T02:45:27,42.805,6.029,CST-1368DR,6674,9356,15220,0.103,551
2020-03-05T02:48:29,42.805,6.029,CST-1368DR,6674,9356,15221,0.102,551
2020-03-05T02:51:30,42.805,6.029,CST-1368DR,6674,9352,15214,0.104,551
2020-03-05T02:54:32,42.805,6.029,CST-1368DR,6674,9355,15219,0.103,551
2020-03-05T02:57:34,42.805,6.029,CST-1368DR,6674,9356,15220,0.103,551
2020-03-05T03:00:35,42.805,6.029,CST-1368DR,6674,9355,15220,0.103,551
2020-03-05T03:03:37,42.805,6.029,CST-1368DR,6674,9355,15220,0.103,551
2020-03-05T03:06:39,42.805,6.029,CST-1368DR,6674,9356,15221,0.102,551
2020-03-05T03:09:40,42.805,6.029,CST-1368DR,6674,9356,15221,0.102,551
2020-03-05T03:12:42,42.805,6.029,CST-1368DR,6674,9354,15218,0.103,551
2020-03-05T03:15:44,42.805,6.029,CST-1368DR,6674,9355,15219,0.103,551
2020-03-05T03:18:45,42.805,6.029,CST-1368DR,6674,9355,15220,0.103,551
2020-03-05T03:21:47,42.805,6.029,CST-1368DR,6674,9353,15215,0.104,551
2020-03-05T03:24:49,42.805,6.029,CST-1368DR,6674,9356,15221,0.102,551
2020-03-05T03:27:50,42.805,6.029,CST-1368DR,6674,9356,15221,0.102,551
2020-03-05T03:30:52,42.805,6.029,CST-1368DR,6674,9353,15216,0.104,551
2020-03-05T03:33:53,42.805,6.029,CST-1368DR,6674,9356,15221,0.102,551
2020-03-05T03:36:55,42.805,6.029,CST-1368DR,6674,9357,15223,0.102,551
2020-03-05T03:39:57,42.805,6.029,CST-1368DR,6674,9355,15219,0.103,551
2020-03-05T03:42:59,42.805,6.029,CST-1368DR,6673,9355,15222,0.102,551
2020-03-05T03:46:00,42.805,6.029,CST-1368DR,6674,9356,15221,0.102,551
2020-03-05T03:49:02,42.805,6.029,CST-1368DR,6674,9356,15221,0.102,551
2020-03-05T03:52:03,42.805,6.029,CST-1368DR,6674,9356,15221,0.102,551
2020-03-05T03:55:05,42.805,6.029,CST-1368DR,6674,9352,15215,0.104,551
2020-03-05T03:58:07,42.805,6.029,CST-1368DR,6674,9356,15221,0.102,551
2020-03-05T04:01:08,42.805,6.029,CST-1368DR,6674,9356,15221,0.102,551
2020-03-05T04:04:10,42.805,6.029,CST-1368DR,6674,9355,15219,0.103,551
2020-03-05T04:07:12,42.805,6.029,CST-1368DR,6674,9354,15218,0.103,551
2020-03-05T04:10:13,42.805,6.029,CST-1368DR,6674,9354,15218,0.103,551
2020-03-05T04:13:15,42.805,6.029,CST-1368DR,6674,9356,15221,0.102,551
2020-03-05T04:16:16,42.805,6.029,CST-1368DR,6673,9355,15222,0.102,551
2020-03-05T04:19:18,42.805,6.029,CST-1368DR,6673,9356,15222,0.102,551
2020-03-05T04:22:20,42.805,6.029,CST-1368DR,6673,9355,15222,0.102,551
2020-03-05T04:25:22,42.805,6.029,CST-1368DR,6674,9356,15221,0.102,551
2020-03-05T04:28:23,42.805,6.029,CST-1368DR,6673,9355,15222,0.102,551
2020-03-05T04:31:25,42.805,6.029,CST-1368DR,6673,9355,15222,0.102,551
2020-03-05T04:34:27,42.805,6.029,CST-1368DR,6673,9355,15222,0.102,551
2020-03-05T04:37:28,42.805,6.029,CST-1368DR,6673,9354,15220,0.103,551
2020-03-05T04:40:30,42.805,6.029,CST-1368DR,6673,9355,15222,0.102,551
2020-03-05T04:43:32,42.805,6.029,CST-1368DR,6673,9355,15222,0.102,551
2020-03-05T04:46:33,42.805,6.029,CST-1368DR,6673,9354,15220,0.103,551
2020-03-05T04:49:35,42.805,6.029,CST-1368DR,6673,9355,15222,0.102,551
2020-03-05T04:52:37,42.805,6.029,CST-1368DR,6673,9354,15220,0.103,551
2020-03-05T04:55:38,42.805,6.029,CST-1368DR,6673,9355,15221,0.102,551
2020-03-05T04:58:40,42.805,6.029,CST-1368DR,6673,9354,15220,0.103,551
2020-03-05T05:01:42,42.805,6.029,CST-1368DR,6673,9356,15222,0.102,551
2020-03-05T05:04:43,42.805,6.029,CST-1368DR,6673,9354,15219,0.103,551
2020-03-05T05:07:45,42.805,6.029,CST-1368DR,6673,9354,15220,0.103,551
2020-03-05T05:10:47,42.805,6.029,CST-1368DR,6673,9353,15219,0.103,551
2020-03-05T05:13:48,42.805,6.029,CST-1368DR,6673,9354,15220,0.103,551
2020-03-05T05:16:50,42.805,6.029,CST-1368DR,6673,9353,15217,0.104,551
2020-03-05T05:19:51,42.805,6.029,CST-1368DR,6673,9354,15219,0.103,551
2020-03-05T05:22:53,42.805,6.029,CST-1368DR,6673,9354,15220,0.103,551
2020-03-05T05:25:55,42.805,6.029,CST-1368DR,6673,9353,15217,0.104,551
2020-03-05T05:28:56,42.805,6.029,CST-1368DR,6673,9355,15222,0.102,551
2020-03-05T05:31:58,42.805,6.029,CST-1368DR,6673,9354,15219,0.103,551
2020-03-05T05:35:00,42.805,6.029,CST-1368DR,6673,9354,15219,0.103,551
2020-03-05T05:38:01,42.805,6.029,CST-1368DR,6673,9356,15223,0.102,551
2020-03-05T05:41:03,42.805,6.029,CST-1368DR,6673,9353,15219,0.103,551
2020-03-05T05:44:05,42.805,6.029,CST-1368DR,6673,9354,15219,0.103,551
2020-03-05T05:47:06,42.805,6.029,CST-1368DR,6673,9352,15217,0.104,551
2020-03-05T05:50:08,42.805,6.029,CST-1368DR,6673,9352,15217,0.104,551
2020-03-05T05:53:09,42.805,6.029,CST-1368DR,6673,9350,15213,0.105,551
2020-03-05T05:56:11,42.805,6.029,CST-1368DR,6673,9354,15220,0.103,551
2020-03-05T05:59:13,42.805,6.029,CST-1368DR,6673,9353,15219,0.103,551
2020-03-05T06:02:14,42.805,6.029,CST-1368DR,6673,9354,15220,0.103,551
2020-03-05T06:05:16,42.805,6.029,CST-1368DR,6673,9355,15222,0.102,551
2020-03-05T06:08:18,42.805,6.029,CST-1368DR,6673,9354,15219,0.103,551
2020-03-05T06:11:19,42.805,6.029,CST-1368DR,6673,9353,15218,0.103,551
2020-03-05T06:14:21,42.805,6.029,CST-1368DR,6673,9355,15221,0.102,551
2020-03-05T06:17:23,42.805,6.029,CST-1368DR,6673,9354,15220,0.103,551
2020-03-05T06:20:24,42.805,6.029,CST-1368DR,6673,9354,15220,0.103,551
2020-03-05T06:23:26,42.805,6.029,CST-1368DR,6673,9353,15218,0.103,551
2020-03-05T06:26:28,42.805,6.029,CST-1368DR,6673,9354,15220,0.103,551
2020-03-05T06:29:29,42.805,6.029,CST-1368DR,6673,9354,15220,0.103,551
2020-03-05T06:32:31,42.805,6.029,CST-1368DR,6673,9352,15217,0.104,551
2020-03-05T06:35:32,42.805,6.029,CST-1368DR,6673,9354,15219,0.103,551
2020-03-05T06:38:34,42.805,6.029,CST-1368DR,6673,9355,15221,0.102,551
2020-03-05T06:41:36,42.805,6.029,CST-1368DR,6673,9355,15221,0.102,551
2020-03-05T06:44:38,42.805,6.029,CST-1368DR,6673,9354,15220,0.103,551
2020-03-05T06:47:39,42.805,6.029,CST-1368DR,6673,9354,15220,0.103,551
2020-03-05T06:50:41,42.805,6.029,CST-1368DR,6673,9355,15221,0.102,551
2020-03-05T06:53:43,42.805,6.029,CST-1368DR,6673,9355,15221,0.102,551
2020-03-05T06:56:44,42.805,6.029,CST-1368DR,6673,9354,15219,0.103,551
2020-03-05T06:59:46,42.805,6.029,CST-1368DR,6673,9354,15220,0.103,551
2020-03-05T07:02:48,42.805,6.029,CST-1368DR,6673,9353,15219,0.103,551
2020-03-05T07:05:49,42.805,6.029,CST-1368DR,6673,9354,15220,0.103,550
2020-03-05T07:08:51,42.805,6.029,CST-1368DR,6673,9354,15220,0.103,551
2020-03-05T07:11:52,42.805,6.029,CST-1368DR,6673,9354,15220,0.103,551
2020-03-05T07:14:54,42.805,6.029,CST-1368DR,6673,9355,15222,0.102,551
2020-03-05T07:17:56,42.805,6.029,CST-1368DR,6673,9355,15221,0.102,551
2020-03-05T07:20:57,42.805,6.029,CST-1368DR,6673,9354,15220,0.103,551
2020-03-05T07:23:59,42.805,6.029,CST-1368DR,6673,9355,15221,0.102,551
2020-03-05T07:27:01,42.805,6.029,CST-1368DR,6673,9354,15219,0.103,551
2020-03-05T07:30:02,42.805,6.029,CST-1368DR,6673,9354,15220,0.103,551
2020-03-05T07:33:04,42.805,6.029,CST-1368DR,6673,9352,15217,0.104,551
2020-03-05T07:36:06,42.805,6.029,CST-1368DR,6673,9352,15216,0.104,551
2020-03-05T07:39:07,42.805,6.029,CST-1368DR,6673,9354,15220,0.103,551
2020-03-05T07:42:09,42.805,6.029,CST-1368DR,6673,9352,15217,0.104,551
2020-03-05T07:45:11,42.805,6.029,CST-1368DR,6673,9353,15219,0.103,551
2020-03-05T07:48:12,42.805,6.029,CST-1368DR,6673,9354,15220,0.103,551
2020-03-05T07:51:14,42.805,6.029,CST-1368DR,6673,9351,15215,0.104,551
2020-03-05T07:54:16,42.805,6.029,CST-1368DR,6672,9353,15220,0.103,551
2020-03-05T07:57:17,42.805,6.029,CST-1368DR,6672,9352,15218,0.103,551
2020-03-05T08:00:19,42.805,6.029,CST-1368DR,6672,9355,15223,0.102,551
2020-03-05T08:03:20,42.805,6.029,CST-1368DR,6673,9353,15219,0.103,551
2020-03-05T08:06:22,42.805,6.029,CST-1368DR,6672,9353,15220,0.103,551
2020-03-05T08:09:24,42.805,6.029,CST-1368DR,6672,9354,15222,0.102,551
2020-03-05T08:12:25,42.805,6.029,CST-1368DR,6672,9354,15222,0.102,551
2020-03-05T08:15:27,42.805,6.029,CST-1368DR,6673,9354,15220,0.103,551
2020-03-05T08:18:29,42.805,6.029,CST-1368DR,6672,9353,15220,0.103,551
2020-03-05T08:21:30,42.805,6.029,CST-1368DR,6672,9353,15221,0.102,550
2020-03-05T08:24:32,42.805,6.029,CST-1368DR,6672,9354,15222,0.102,551
2020-03-05T08:27:34,42.805,6.029,CST-1368DR,6672,9354,15222,0.102,551
2020-03-05T08:30:35,42.805,6.029,CST-1368DR,6672,9354,15221,0.102,551
2020-03-05T08:33:37,42.805,6.029,CST-1368DR,6672,9353,15220,0.103,551
2020-03-05T08:36:39,42.805,6.029,CST-1368DR,6672,9353,15221,0.102,551
2020-03-05T08:39:40,42.805,6.029,CST-1368DR,6672,9353,15220,0.103,551
2020-03-05T08:42:42,42.805,6.029,CST-1368DR,6672,9353,15220,0.103,551
2020-03-05T08:45:43,42.805,6.029,CST-1368DR,6672,9354,15221,0.102,551
2020-03-05T08:48:45,42.805,6.029,CST-1368DR,6672,9353,15220,0.103,551
2020-03-05T08:51:47,42.805,6.029,CST-1368DR,6672,9351,15216,0.104,551
2020-03-05T08:54:48,42.805,6.029,CST-1368DR,6672,9354,15222,0.102,551
2020-03-05T08:57:50,42.805,6.029,CST-1368DR,6672,9355,15223,0.102,551
2020-03-05T09:00:52,42.805,6.029,CST-1368DR,6672,9354,15221,0.102,551
2020-03-05T09:03:53,42.805,6.029,CST-1368DR,6672,9354,15222,0.102,551
2020-03-05T09:06:55,42.805,6.029,CST-1368DR,6672,9353,15221,0.102,551
2020-03-05T09:09:57,42.805,6.029,CST-1368DR,6672,9353,15221,0.102,551
2020-03-05T09:12:58,42.805,6.029,CST-1368DR,6672,9352,15218,0.103,551
2020-03-05T09:16:00,42.805,6.029,CST-1368DR,6672,9354,15222,0.102,551
2020-03-05T09:19:01,42.805,6.029,CST-1368DR,6672,9353,15220,0.103,551
2020-03-05T09:22:03,42.805,6.029,CST-1368DR,6672,9348,15212,0.105,551
2020-03-05T09:25:05,42.805,6.029,CST-1368DR,6672,9352,15219,0.103,551
2020-03-05T09:28:07,42.805,6.029,CST-1368DR,6672,9353,15220,0.103,551
2020-03-05T09:31:08,42.805,6.029,CST-1368DR,6672,9354,15221,0.102,551
2020-03-05T09:34:10,42.805,6.029,CST-1368DR,6672,9353,15221,0.102,551
2020-03-05T09:37:12,42.805,6.029,CST-1368DR,6672,9354,15222,0.102,551
2020-03-05T09:40:13,42.805,6.029,CST-1368DR,6672,9351,15218,0.103,551
2020-03-05T09:43:15,42.805,6.029,CST-1368DR,6672,9352,15219,0.103,551
2020-03-05T09:46:17,42.805,6.029,CST-1368DR,6672,9353,15220,0.103,551
2020-03-05T09:49:18,42.805,6.029,CST-1368DR,6672,9354,15221,0.102,551
2020-03-05T09:52:20,42.805,6.029,CST-1368DR,6672,9352,15219,0.103,551
2020-03-05T09:55:23,42.805,6.029,CST-1368DR,6672,9352,15219,0.103,551
2020-03-05T09:58:24,42.805,6.029,CST-1368DR,6672,9352,15219,0.103,551
2020-03-05T10:01:26,42.805,6.029,CST-1368DR,6672,9354,15222,0.102,551
2020-03-05T10:04:28,42.805,6.029,CST-1368DR,6672,9354,15221,0.102,551
2020-03-05T10:07:30,42.805,6.029,CST-1368DR,6672,9354,15222,0.102,550
2020-03-05T10:10:31,42.805,6.029,CST-1368DR,6672,9353,15220,0.103,551
2020-03-05T10:13:33,42.805,6.029,CST-1368DR,6672,9353,15220,0.103,551
2020-03-05T10:16:35,42.805,6.029,CST-1368DR,6672,9350,15216,0.104,551
2020-03-05T10:19:36,42.805,6.029,CST-1368DR,6672,9353,15220,0.103,551
2020-03-05T10:22:38,42.805,6.029,CST-1368DR,6672,9353,15220,0.103,550
2020-03-05T10:25:40,42.805,6.029,CST-1368DR,6672,9354,15222,0.102,551
2020-03-05T10:28:41,42.805,6.029,CST-1368DR,6672,9353,15221,0.102,551
2020-03-05T10:31:43,42.805,6.029,CST-1368DR,6672,9354,15222,0.102,550
2020-03-05T10:34:44,42.805,6.029,CST-1368DR,6672,9354,15222,0.102,551
2020-03-05T10:37:46,42.805,6.029,CST-1368DR,6672,9351,15217,0.104,551
2020-03-05T10:40:48,42.805,6.029,CST-1368DR,6672,9352,15218,0.103,551
2020-03-05T10:43:49,42.805,6.029,CST-1368DR,6672,9352,15218,0.103,551
2020-03-05T10:46:51,42.805,6.029,CST-1368DR,6672,9351,15217,0.104,551
2020-03-05T10:49:53,42.805,6.029,CST-1368DR,6672,9353,15221,0.102,551
2020-03-05T10:52:54,42.805,6.029,CST-1368DR,6672,9353,15220,0.103,551
2020-03-05T10:55:56,42.805,6.029,CST-1368DR,6671,9319,15167,0.117,551
2020-03-05T10:58:58,42.805,6.029,CST-1368DR,6671,9329,15184,0.112,551
2020-03-05T11:01:59,42.805,6.029,CST-1368DR,6671,9351,15220,0.103,551
2020-03-05T11:05:01,42.805,6.029,CST-1368DR,6672,9352,15219,0.103,551
2020-03-05T11:08:03,42.805,6.029,CST-1368DR,6671,9347,15213,0.105,551
2020-03-05T11:11:05,42.805,6.029,CST-1368DR,6672,9352,15219,0.103,551
2020-03-05T11:14:06,42.805,6.029,CST-1368DR,6671,9349,15216,0.104,551
2020-03-05T11:17:08,42.805,6.029,CST-1368DR,6671,9351,15219,0.103,551
2020-03-05T11:20:10,42.805,6.029,CST-1368DR,6671,9344,15208,0.106,551
2020-03-05T11:23:11,42.805,6.029,CST-1368DR,6671,9350,15217,0.104,551
2020-03-05T11:26:13,42.805,6.029,CST-1368DR,6671,9351,15219,0.103,551
2020-03-05T11:29:14,42.805,6.029,CST-1368DR,6671,9353,15223,0.102,550
2020-03-05T11:32:16,42.805,6.029,CST-1368DR,6671,9352,15221,0.102,550
2020-03-05T11:35:18,42.805,6.029,CST-1368DR,6671,9352,15221,0.102,551
2020-03-05T11:38:19,42.805,6.029,CST-1368DR,6671,9350,15218,0.103,551
2020-03-05T11:41:21,42.805,6.029,CST-1368DR,6671,9349,15216,0.104,551
2020-03-05T11:44:23,42.805,6.029,CST-1368DR,6671,9351,15219,0.103,551
2020-03-05T11:47:24,42.805,6.029,CST-1368DR,6671,9351,15219,0.103,551
2020-03-05T11:50:26,42.805,6.029,CST-1368DR,6671,9352,15221,0.102,551
2020-03-05T11:53:28,42.805,6.029,CST-1368DR,6671,9349,15216,0.104,551
2020-03-05T11:56:29,42.805,6.029,CST-1368DR,6671,9351,15219,0.103,551
2020-03-05T11:59:31,42.805,6.029,CST-1368DR,6671,9351,15218,0.103,551
2020-03-05T12:02:32,42.805,6.029,CST-1368DR,6671,9350,15218,0.103,550
2020-03-05T12:05:34,42.805,6.029,CST-1368DR,6671,9351,15219,0.103,551
2020-03-05T12:08:36,42.805,6.029,CST-1368DR,6671,9351,15220,0.103,551
2020-03-05T12:11:37,42.805,6.029,CST-1368DR,6671,9351,15219,0.103,551
2020-03-05T12:14:39,42.805,6.029,CST-1368DR,6671,9351,15219,0.103,551
2020-03-05T12:17:41,42.805,6.029,CST-1368DR,6671,9349,15216,0.104,551
2020-03-05T12:20:42,42.805,6.029,CST-1368DR,6671,9351,15218,0.103,551
2020-03-05T12:23:44,42.805,6.029,CST-1368DR,6671,9351,15219,0.103,551
2020-03-05T12:26:46,42.805,6.029,CST-1368DR,6671,9349,15215,0.104,551
2020-03-05T12:29:47,42.805,6.029,CST-1368DR,6671,9351,15218,0.103,551
2020-03-05T12:32:49,42.805,6.029,CST-1368DR,6671,9350,15218,0.103,551
2020-03-05T12:35:51,42.805,6.029,CST-1368DR,6671,9350,15217,0.104,551
2020-03-05T12:38:52,42.805,6.029,CST-1368DR,6671,9351,15218,0.103,551
2020-03-05T12:41:54,42.805,6.029,CST-1368DR,6671,9351,15220,0.103,551
2020-03-05T12:44:56,42.805,6.029,CST-1368DR,6671,9351,15218,0.103,551
2020-03-05T12:47:57,42.805,6.029,CST-1368DR,6671,9350,15218,0.103,551
2020-03-05T12:50:59,42.805,6.029,CST-1368DR,6671,9351,15218,0.103,551
2020-03-05T12:54:01,42.805,6.029,CST-1368DR,6671,9349,15216,0.104,551
2020-03-05T12:57:02,42.805,6.029,CST-1368DR,6671,9351,15219,0.103,551
2020-03-05T13:00:04,42.805,6.029,CST-1368DR,6671,9350,15218,0.103,551
2020-03-05T13:03:05,42.805,6.029,CST-1368DR,6671,9351,15219,0.103,551
2020-03-05T13:06:07,42.805,6.029,CST-1368DR,6671,9351,15219,0.103,551
2020-03-05T13:09:09,42.805,6.029,CST-1368DR,6671,9351,15219,0.103,551
2020-03-05T13:12:10,42.805,6.029,CST-1368DR,6671,9351,15220,0.103,551
2020-03-05T13:15:12,42.805,6.029,CST-1368DR,6671,9350,15217,0.104,551
2020-03-05T13:18:14,42.805,6.029,CST-1368DR,6671,9344,15208,0.106,550
2020-03-05T13:21:15,42.805,6.029,CST-1368DR,6671,9350,15217,0.104,551
2020-03-05T13:24:17,42.805,6.029,CST-1368DR,6671,9349,15216,0.104,551
2020-03-05T13:27:19,42.805,6.029,CST-1368DR,6671,9350,15217,0.104,551
2020-03-05T13:30:20,42.805,6.029,CST-1368DR,6671,9349,15216,0.104,551
2020-03-05T13:33:22,42.805,6.029,CST-1368DR,6671,9350,15217,0.104,551
2020-03-05T13:36:24,42.805,6.029,CST-1368DR,6671,9350,15217,0.104,551
2020-03-05T13:39:25,42.805,6.029,CST-1368DR,6671,9350,15218,0.103,551
2020-03-05T13:42:27,42.805,6.029,CST-1368DR,6671,9350,15217,0.104,551
2020-03-05T13:45:29,42.805,6.029,CST-1368DR,6671,9347,15213,0.105,551
2020-03-05T13:48:30,42.805,6.029,CST-1368DR,6671,9352,15221,0.102,551
2020-03-05T13:51:32,42.805,6.029,CST-1368DR,6671,9347,15212,0.105,551
2020-03-05T13:54:34,42.805,6.029,CST-1368DR,6671,9351,15218,0.103,551
2020-03-05T13:57:35,42.805,6.029,CST-1368DR,6671,9351,15220,0.103,551
2020-03-05T14:00:37,42.805,6.029,CST-1368DR,6671,9344,15208,0.106,551
2020-03-05T14:03:39,42.805,6.029,CST-1368DR,6671,9350,15218,0.103,551
2020-03-05T14:06:40,42.805,6.029,CST-1368DR,6671,9351,15219,0.103,551
2020-03-05T14:09:42,42.805,6.029,CST-1368DR,6671,9351,15219,0.103,551
2020-03-05T14:12:44,42.805,6.029,CST-1368DR,6671,9350,15217,0.104,551
2020-03-05T14:15:45,42.805,6.029,CST-1368DR,6671,9347,15212,0.105,551
2020-03-05T14:18:47,42.805,6.029,CST-1368DR,6671,9350,15217,0.104,551
2020-03-05T14:21:49,42.805,6.029,CST-1368DR,6671,9351,15219,0.103,551
2020-03-05T14:24:50,42.805,6.029,CST-1368DR,6671,9350,15217,0.104,551
2020-03-05T14:27:52,42.805,6.029,CST-1368DR,6671,9348,15214,0.104,551
2020-03-05T14:30:53,42.805,6.029,CST-1368DR,6671,9350,15218,0.103,551
2020-03-05T14:33:55,42.805,6.029,CST-1368DR,6671,9349,15216,0.104,550
2020-03-05T14:36:57,42.805,6.029,CST-1368DR,6671,9349,15216,0.104,551
2020-03-05T14:39:58,42.805,6.029,CST-1368DR,6671,9350,15218,0.103,551
2020-03-05T14:43:00,42.805,6.029,CST-1368DR,6671,9350,15217,0.104,551
2020-03-05T14:46:02,42.805,6.029,CST-1368DR,6671,9349,15216,0.104,551
2020-03-05T14:49:03,42.805,6.029,CST-1368DR,6671,9348,15215,0.104,551
2020-03-05T14:52:05,42.805,6.029,CST-1368DR,6671,9350,15217,0.104,551
2020-03-05T14:55:07,42.805,6.029,CST-1368DR,6671,9350,15217,0.104,551
2020-03-05T14:58:08,42.805,6.029,CST-1368DR,6671,9348,15215,0.104,551
2020-03-05T15:01:10,42.805,6.029,CST-1368DR,6671,9348,15214,0.104,551
2020-03-05T15:04:12,42.805,6.029,CST-1368DR,6671,9350,15217,0.104,551
2020-03-05T15:07:14,42.805,6.029,CST-1368DR,6671,9350,15217,0.104,551
2020-03-05T15:10:15,42.805,6.029,CST-1368DR,6671,9350,15218,0.103,551
2020-03-05T15:13:17,42.805,6.029,CST-1368DR,6671,9348,15214,0.104,551
2020-03-05T15:16:19,42.805,6.029,CST-1368DR,6671,9350,15217,0.104,551
2020-03-05T15:19:20,42.805,6.029,CST-1368DR,6671,9348,15214,0.104,551
2020-03-05T15:22:22,42.805,6.029,CST-1368DR,6671,9350,15218,0.103,551
2020-03-05T15:25:23,42.805,6.029,CST-1368DR,6671,9349,15216,0.104,551
2020-03-05T15:28:25,42.805,6.029,CST-1368DR,6671,9349,15216,0.104,551
2020-03-05T15:31:27,42.805,6.029,CST-1368DR,6671,9349,15216,0.104,551
2020-03-05T15:34:28,42.805,6.029,CST-1368DR,6671,9350,15217,0.104,551
2020-03-05T15:37:30,42.805,6.029,CST-1368DR,6671,9348,15214,0.104,551
2020-03-05T15:40:32,42.805,6.029,CST-1368DR,6671,9347,15213,0.105,551
2020-03-05T15:43:33,42.805,6.029,CST-1368DR,6671,9347,15212,0.105,551
2020-03-05T15:46:35,42.805,6.029,CST-1368DR,6671,9351,15218,0.103,551
2020-03-05T15:49:37,42.805,6.029,CST-1368DR,6671,9349,15216,0.104,551
2020-03-05T15:52:38,42.805,6.029,CST-1368DR,6671,9350,15217,0.104,551
2020-03-05T15:55:40,42.805,6.029,CST-1368DR,6671,9350,15217,0.104,551
2020-03-05T15:58:42,42.805,6.029,CST-1368DR,6671,9349,15216,0.104,551
2020-03-05T16:01:43,42.805,6.029,CST-1368DR,6671,9351,15218,0.103,551
2020-03-05T16:04:45,42.805,6.029,CST-1368DR,6671,9349,15216,0.104,551
2020-03-05T16:07:46,42.805,6.029,CST-1368DR,6671,9350,15218,0.103,551
2020-03-05T16:10:48,42.805,6.029,CST-1368DR,6671,9348,15215,0.104,551
2020-03-05T16:13:50,42.805,6.029,CST-1368DR,6671,9349,15216,0.104,550
2020-03-05T16:16:51,42.805,6.029,CST-1368DR,6671,9347,15213,0.105,551
2020-03-05T16:19:53,42.805,6.029,CST-1368DR,6671,9349,15216,0.104,551
2020-03-05T16:22:55,42.805,6.029,CST-1368DR,6671,9350,15217,0.104,551
2020-03-05T16:25:56,42.805,6.029,CST-1368DR,6671,9349,15216,0.104,551
2020-03-05T16:28:58,42.805,6.029,CST-1368DR,6671,9349,15216,0.104,551
2020-03-05T16:32:00,42.805,6.029,CST-1368DR,6671,9350,15218,0.103,551
2020-03-05T16:35:01,42.805,6.029,CST-1368DR,6671,9351,15220,0.103,551
2020-03-05T16:38:03,42.805,6.029,CST-1368DR,6671,9350,15217,0.104,551
2020-03-05T16:41:05,42.805,6.029,CST-1368DR,6671,9350,15217,0.104,551
2020-03-05T16:44:06,42.805,6.029,CST-1368DR,6671,9346,15210,0.105,551
2020-03-05T16:47:08,42.805,6.029,CST-1368DR,6671,9350,15218,0.103,551
2020-03-05T16:50:10,42.805,6.029,CST-1368DR,6671,9351,15218,0.103,551
2020-03-05T16:53:12,42.805,6.029,CST-1368DR,6671,9351,15220,0.103,551